QPF
0.04 0.04 0.02 0.02 0.02 0.01 0.01 0.01 0.00 0.00 0.00 0.00 0.00 0.00 0.00 0.00 0.00 0.00 0.00 0.00 0.00 0.00 0.00 0.00 0.00 0.00 0.00 0.00 0.00 0.00 0.00 0.00 0.00 0.00 0.00 0.00 0.00 0.00 0.00 0.00 0.00 0.00 0.00
0.06 0.04 0.03 0.02 0.02 0.01 0.01 0.01 0.00 0.00 0.00 0.00 0.00 0.00 0.00 0.00 0.00 0.00 0.00 0.00 0.00 0.00 0.00 0.00 0.00 0.00 0.00 0.00 0.00 0.00 0.00 0.00 0.00 0.00 0.00 0.00 0.00 0.00 0.00 0.00 0.00 0.00 0.00
0.12 0.08 0.04 0.02 0.02 0.01 0.01 0.01 0.01 0.00 0.00 0.00 0.00 0.00 0.00 0.00 0.00 0.00 0.00 0.00 0.00 0.00 0.00 0.00 0.00 0.00 0.00 0.00 0.00 0.00 0.00 0.00 0.00 0.00 0.00 0.00 0.00 0.00 0.00 0.00 0.00 0.00 0.00
0.12 0.13 0.10 0.06 0.03 0.01 0.01 0.01 0.01 0.00 0.00 0.00 0.00 0.00 0.00 0.00 0.00 0.00 0.00 0.00 0.00 0.00 0.00 0.00 0.00 0.00 0.00 0.00 0.00 0.00 0.00 0.00 0.00 0.00 0.00 0.00 0.00 0.00 0.00 0.00 0.00 0.00 0.00
0.12 0.13 0.14 0.10 0.05 0.03 0.01 0.01 0.01 0.00 0.00 0.00 0.00 0.00 0.00 0.00 0.00 0.00 0.00 0.00 0.00 0.00 0.00 0.00 0.00 0.00 0.00 0.00 0.00 0.00 0.00 0.00 0.00 0.00 0.00 0.00 0.00 0.00 0.00 0.00 0.00 0.00 0.01
0.12 0.10 0.13 0.14 0.10 0.06 0.03 0.01 0.01 0.00 0.00 0.00 0.00 0.00 0.00 0.00 0.00 0.00 0.00 0.00 0.00 0.00 0.00 0.00 0.00 0.00 0.00 0.00 0.00 0.00 0.00 0.00 0.00 0.00 0.00 0.00 0.00 0.00 0.00 0.00 0.01 0.01 0.01
0.14 0.10 0.09 0.10 0.13 0.11 0.06 0.03 0.01 0.01 0.00 0.00 0.00 0.00 0.00 0.00 0.00 0.00 0.00 0.00 0.00 0.00 0.00 0.00 0.00 0.00 0.00 0.00 0.00 0.00 0.00 0.00 0.00 0.00 0.00 0.00 0.00 0.00 0.00 0.00 0.00 0.01 0.01
0.15 0.11 0.08 0.08 0.08 0.09 0.09 0.05 0.03 0.02 0.01 0.00 0.00 0.00 0.00 0.00 0.00 0.00 0.00 0.00 0.00 0.00 0.00 0.00 0.00 0.00 0.00 0.00 0.00 0.00 0.00 0.00 0.00 0.00 0.00 0.00 0.00 0.00 0.00 0.00 0.01 0.01 0.01
0.17 0.12 0.07 0.07 0.07 0.06 0.06 0.05 0.04 0.02 0.01 0.01 0.00 0.00 0.00 0.00 0.00 0.00 0.00 0.00 0.00 0.00 0.00 0.00 0.00 0.00 0.00 0.00 0.00 0.00 0.00 0.00 0.00 0.00 0.00 0.00 0.00 0.00 0.01 0.01 0.01 0.01 0.01
0.19 0.14 0.09 0.06 0.07 0.07 0.04 0.03 0.03 0.03 0.02 0.01 0.01 0.00 0.00 0.00 0.00 0.00 0.00 0.00 0.00 0.00 0.00 0.00 0.00 0.00 0.00 0.00 0.00 0.00 0.00 0.00 0.00 0.00 0.00 0.00 0.00 0.01 0.01 0.01 0.01 0.01 0.02
0.20 0.16 0.12 0.07 0.06 0.07 0.06 0.04 0.03 0.02 0.02 0.02 0.01 0.01 0.00 0.00 0.00 0.00 0.00 0.00 0.00 0.00 0.00 0.00 0.00 0.00 0.00 0.00 0.00 0.00 0.00 0.00 0.00 0.00 0.00 0.00 0.00 0.01 0.01 0.01 0.01 0.01 0.02
0.19 0.17 0.14 0.10 0.06 0.05 0.05 0.05 0.04 0.03 0.02 0.02 0.01 0.01 0.00 0.00 0.00 0.00 0.00 0.00 0.00 0.00 0.00 0.00 0.00 0.00 0.00 0.00 0.00 0.00 0.00 0.00 0.00 0.00 0.00 0.00 0.00 0.00 0.00 0.01 0.01 0.01 0.02
0.16 0.15 0.14 0.11 0.08 0.05 0.05 0.04 0.04 0.03 0.03 0.02 0.01 0.01 0.00 0.00 0.00 0.00 0.00 0.00 0.00 0.00 0.00 0.00 0.00 0.00 0.00 0.00 0.00 0.00 0.00 0.00 0.00 0.00 0.00 0.00 0.00 0.00 0.00 0.00 0.01 0.01 0.01
0.12 0.12 0.11 0.11 0.09 0.06 0.05 0.04 0.04 0.03 0.02 0.02 0.01 0.01 0.01 0.00 0.00 0.00 0.00 0.00 0.00 0.00 0.00 0.00 0.00 0.00 0.00 0.00 0.00 0.00 0.00 0.00 0.00 0.00 0.00 0.00 0.00 0.00 0.00 0.00 0.00 0.00 0.01
0.10 0.11 0.10 0.09 0.09 0.07 0.05 0.05 0.04 0.03 0.02 0.02 0.01 0.01 0.00 0.00 0.00 0.00 0.00 0.00 0.00 0.00 0.00 0.00 0.00 0.00 0.00 0.00 0.00 0.00 0.00 0.00 0.00 0.00 0.00 0.00 0.00 0.00 0.00 0.00 0.00 0.00 0.01
0.10 0.09 0.10 0.09 0.08 0.07 0.05 0.05 0.04 0.03 0.02 0.02 0.01 0.00 0.00 0.00 0.00 0.00 0.00 0.00 0.00 0.00 0.00 0.00 0.00 0.00 0.00 0.00 0.00 0.00 0.00 0.01 0.00 0.00 0.00 0.00 0.00 0.00 0.00 0.00 0.00 0.00 0.00
0.11 0.09 0.09 0.09 0.08 0.07 0.06 0.06 0.05 0.03 0.03 0.02 0.02 0.01 0.00 0.00 0.00 0.00 0.00 0.00 0.00 0.00 0.01 0.01 0.00 0.00 0.00 0.00 0.01 0.00 0.00 0.00 0.00 0.00 0.00 0.00 0.00 0.00 0.00 0.00 0.00 0.00 0.00
0.12 0.09 0.08 0.08 0.07 0.06 0.05 0.05 0.06 0.04 0.03 0.02 0.01 0.01 0.01 0.00 0.00 0.00 0.00 0.00 0.00 0.01 0.01 0.01 0.01 0.01 0.01 0.01 0.00 0.01 0.00 0.00 0.00 0.00 0.00 0.00 0.00 0.00 0.00 0.00 0.00 0.00 0.00
0.16 0.10 0.08 0.07 0.06 0.06 0.04 0.04 0.05 0.05 0.04 0.03 0.02 0.01 0.01 0.01 0.00 0.00 0.00 0.01 0.00 0.00 0.01 0.02 0.02 0.02 0.01 0.01 0.01 0.01 0.00 0.00 0.00 0.00 0.00 0.00 0.00 0.00 0.00 0.00 0.00 0.00 0.00
0.21 0.16 0.09 0.07 0.05 0.05 0.04 0.03 0.02 0.03 0.03 0.03 0.02 0.02 0.01 0.01 0.01 0.01 0.01 0.01 0.01 0.02 0.03 0.02 0.02 0.01 0.01 0.01 0.01 0.00 0.00 0.00 0.00 0.00 0.00 0.00 0.00 0.00 0.00 0.00 0.00 0.00 0.00
0.17 0.18 0.14 0.10 0.07 0.06 0.05 0.03 0.02 0.02 0.02 0.02 0.01 0.01 0.01 0.02 0.02 0.01 0.01 0.01 0.01 0.02 0.02 0.01 0.01 0.01 0.01 0.01 0.01 0.00 0.00 0.00 0.00 0.00 0.00 0.00 0.00 0.00 0.00 0.00 0.00 0.00 0.00
0.15 0.14 0.16 0.13 0.10 0.08 0.06 0.04 0.03 0.02 0.02 0.01 0.01 0.01 0.01 0.02 0.02 0.01 0.01 0.01 0.01 0.01 0.01 0.01 0.01 0.01 0.01 0.01 0.01 0.01 0.01 0.01 0.01 0.00 0.00 0.00 0.00 0.00 0.00 0.00 0.00 0.00 0.00
0.15 0.12 0.10 0.11 0.10 0.08 0.07 0.05 0.04 0.04 0.03 0.02 0.02 0.02 0.01 0.01 0.01 0.01 0.02 0.02 0.02 0.02 0.02 0.01 0.01 0.01 0.01 0.00 0.00 0.01 0.01 0.00 0.01 0.01 0.00 0.00 0.00 0.00 0.00 0.00 0.00 0.00 0.00
0.12 0.11 0.09 0.08 0.08 0.06 0.06 0.05 0.04 0.04 0.05 0.04 0.04 0.03 0.03 0.02 0.02 0.02 0.02 0.02 0.02 0.02 0.02 0.01 0.00 0.00 0.00 0.01 0.00 0.00 0.01 0.01 0.01 0.01 0.01 0.01 0.00 0.00 0.00 0.00 0.00 0.00 0.00
0.11 0.10 0.08 0.08 0.07 0.05 0.05 0.05 0.05 0.03 0.04 0.04 0.04 0.04 0.04 0.04 0.04 0.04 0.03 0.03 0.02 0.01 0.01 0.01 0.01 0.01 0.01 0.01 0.01 0.00 0.01 0.01 0.01 0.01 0.01 0.00 0.00 0.00 0.00 0.00 0.00 0.00 0.00
0.11 0.10 0.07 0.07 0.07 0.05 0.05 0.06 0.06 0.04 0.04 0.04 0.04 0.04 0.06 0.05 0.05 0.04 0.03 0.02 0.02 0.02 0.01 0.01 0.01 0.01 0.01 0.01 0.01 0.00 0.00 0.00 0.00 0.00 0.00 0.00 0.00 0.00 0.00 0.00 0.00 0.00 0.00
MSLP
1005.57 1006.59 1007.57 1008.47 1009.28 1010.03 1010.70 1011.32 1011.90 1012.43 1012.92 1013.35 1013.72 1014.05 1014.34 1014.60 1014.86 1015.13 1015.43 1015.75 1016.08 1016.41 1016.72 1017.00 1017.22 1017.38 1017.50 1017.57 1017.62 1017.67 1017.73 1017.81 1017.90 1018.00 1018.10 1018.17 1018.21 1018.20 1018.14 1018.03 1017.88 1017.72 1017.55
1004.78 1005.86 1006.93 1007.93 1008.84 1009.66 1010.41 1011.09 1011.71 1012.30 1012.85 1013.35 1013.81 1014.21 1014.56 1014.86 1015.13 1015.38 1015.64 1015.91 1016.19 1016.50 1016.80 1017.09 1017.35 1017.55 1017.69 1017.78 1017.83 1017.85 1017.87 1017.90 1017.95 1018.02 1018.11 1018.19 1018.25 1018.27 1018.23 1018.14 1017.99 1017.81 1017.62
1003.87 1005.03 1006.19 1007.31 1008.34 1009.27 1010.10 1010.85 1011.54 1012.18 1012.79 1013.38 1013.92 1014.40 1014.81 1015.16 1015.44 1015.67 1015.88 1016.09 1016.32 1016.57 1016.86 1017.15 1017.42 1017.66 1017.84 1017.95 1017.99 1018.00 1017.97 1017.95 1017.95 1017.98 1018.04 1018.11 1018.18 1018.21 1018.18 1018.10 1017.96 1017.77 1017.55
1002.89 1004.13 1005.41 1006.66 1007.82 1008.86 1009.78 1010.60 1011.34 1012.04 1012.71 1013.36 1013.98 1014.55 1015.04 1015.43 1015.73 1015.95 1016.12 1016.26 1016.43 1016.62 1016.86 1017.14 1017.42 1017.68 1017.88 1018.01 1018.07 1018.05 1018.00 1017.93 1017.87 1017.85 1017.87 1017.91 1017.96 1017.99 1017.97 1017.89 1017.74 1017.54 1017.31
1001.91 1003.22 1004.61 1006.00 1007.29 1008.44 1009.44 1010.31 1011.10 1011.83 1012.55 1013.26 1013.95 1014.59 1015.16 1015.62 1015.95 1016.17 1016.31 1016.40 1016.50 1016.63 1016.81 1017.05 1017.32 1017.58 1017.80 1017.95 1018.01 1017.98 1017.90 1017.79 1017.69 1017.62 1017.59 1017.60 1017.62 1017.63 1017.60 1017.51 1017.35 1017.13 1016.89
1000.98 1002.35 1003.85 1005.35 1006.76 1008.00 1009.07 1009.98 1010.78 1011.53 1012.27 1013.01 1013.76 1014.48 1015.13 1015.66 1016.05 1016.29 1016.42 1016.48 1016.51 1016.58 1016.70 1016.88 1017.12 1017.37 1017.58 1017.74 1017.80 1017.78 1017.68 1017.54 1017.41 1017.29 1017.22 1017.19 1017.18 1017.16 1017.11 1016.99 1016.81 1016.58 1016.30
1000.15 1001.57 1003.16 1004.76 1006.26 1007.57 1008.68 1009.60 1010.40 1011.13 1011.86 1012.63 1013.42 1014.20 1014.93 1015.54 1016.00 1016.28 1016.42 1016.46 1016.45 1016.46 1016.51 1016.64 1016.83 1017.05 1017.26 1017.41 1017.48 1017.46 1017.37 1017.22 1017.07 1016.93 1016.83 1016.77 1016.73 1016.67 1016.58 1016.43 1016.22 1015.94 1015.63
999.45 1000.92 1002.57 1004.24 1005.80 1007.16 1008.28 1009.20 1009.97 1010.67 1011.38 1012.14 1012.95 1013.78 1014.57 1015.26 1015.79 1016.13 1016.31 1016.35 1016.32 1016.28 1016.28 1016.36 1016.50 1016.68 1016.87 1017.02 1017.10 1017.10 1017.02 1016.89 1016.74 1016.60 1016.49 1016.40 1016.33 1016.24 1016.11 1015.92 1015.66 1015.35 1014.99
998.91 1000.41 1002.10 1003.82 1005.42 1006.80 1007.92 1008.81 1009.53 1010.19 1010.86 1011.59 1012.40 1013.26 1014.10 1014.86 1015.46 1015.87 1016.09 1016.16 1016.13 1016.07 1016.03 1016.06 1016.16 1016.31 1016.48 1016.63 1016.73 1016.75 1016.71 1016.61 1016.49 1016.36 1016.25 1016.16 1016.06 1015.94 1015.78 1015.55 1015.24 1014.88 1014.48
998.53 1000.04 1001.76 1003.51 1005.12 1006.50 1007.60 1008.46 1009.15 1009.75 1010.37 1011.07 1011.87 1012.73 1013.60 1014.40 1015.05 1015.52 1015.79 1015.89 1015.88 1015.83 1015.78 1015.79 1015.86 1016.00 1016.17 1016.32 1016.44 1016.50 1016.49 1016.43 1016.35 1016.25 1016.16 1016.07 1015.97 1015.83 1015.64 1015.37 1015.03 1014.62 1014.18
998.28 999.81 1001.54 1003.29 1004.90 1006.27 1007.35 1008.19 1008.84 1009.40 1009.98 1010.64 1011.41 1012.25 1013.12 1013.93 1014.62 1015.13 1015.44 1015.59 1015.61 1015.58 1015.55 1015.56 1015.64 1015.77 1015.95 1016.12 1016.26 1016.35 1016.39 1016.38 1016.33 1016.27 1016.21 1016.13 1016.03 1015.88 1015.67 1015.39 1015.02 1014.59 1014.12
998.15 999.69 1001.42 1003.15 1004.74 1006.09 1007.16 1007.98 1008.61 1009.15 1009.70 1010.33 1011.05 1011.86 1012.70 1013.50 1014.19 1014.72 1015.06 1015.25 1015.32 1015.33 1015.33 1015.38 1015.48 1015.64 1015.83 1016.03 1016.20 1016.32 1016.40 1016.42 1016.41 1016.39 1016.34 1016.28 1016.19 1016.05 1015.84 1015.55 1015.18 1014.75 1014.27
998.10 999.65 1001.36 1003.05 1004.61 1005.94 1007.00 1007.82 1008.45 1008.99 1009.53 1010.13 1010.82 1011.58 1012.37 1013.13 1013.79 1014.31 1014.67 1014.89 1015.00 1015.07 1015.13 1015.22 1015.37 1015.57 1015.79 1016.02 1016.22 1016.37 1016.47 1016.52 1016.53 1016.52 1016.49 1016.45 1016.37 1016.24 1016.05 1015.78 1015.43 1015.02 1014.56
998.12 999.66 1001.33 1002.97 1004.49 1005.78 1006.84 1007.66 1008.32 1008.88 1009.44 1010.03 1010.69 1011.40 1012.13 1012.82 1013.43 1013.92 1014.27 1014.51 1014.67 1014.79 1014.92 1015.09 1015.30 1015.55 1015.82 1016.07 1016.29 1016.45 1016.55 1016.61 1016.63 1016.62 1016.60 1016.56 1016.50 1016.39 1016.23 1015.99 1015.68 1015.31 1014.88
998.18 999.71 1001.31 1002.89 1004.33 1005.59 1006.63 1007.48 1008.18 1008.79 1009.37 1009.98 1010.62 1011.28 1011.95 1012.57 1013.12 1013.56 1013.89 1014.14 1014.34 1014.53 1014.73 1014.97 1015.25 1015.56 1015.87 1016.15 1016.38 1016.54 1016.64 1016.68 1016.68 1016.66 1016.62 1016.58 1016.52 1016.43 1016.30 1016.11 1015.85 1015.52 1015.15
998.29 999.78 1001.30 1002.78 1004.14 1005.35 1006.38 1007.25 1008.00 1008.67 1009.31 1009.94 1010.58 1011.22 1011.83 1012.38 1012.86 1013.24 1013.55 1013.81 1014.04 1014.29 1014.57 1014.89 1015.24 1015.61 1015.96 1016.26 1016.49 1016.64 1016.72 1016.73 1016.69 1016.64 1016.58 1016.52 1016.45 1016.37 1016.26 1016.10 1015.89 1015.62 1015.30
998.46 999.88 1001.30 1002.66 1003.92 1005.07 1006.08 1006.98 1007.78 1008.52 1009.23 1009.91 1010.57 1011.19 1011.76 1012.25 1012.67 1013.01 1013.30 1013.56 1013.83 1014.13 1014.48 1014.88 1015.30 1015.73 1016.12 1016.43 1016.66 1016.79 1016.83 1016.80 1016.72 1016.61 1016.51 1016.41 1016.33 1016.24 1016.13 1016.00 1015.82 1015.58 1015.30
998.67 1000.01 1001.31 1002.55 1003.71 1004.78 1005.77 1006.69 1007.55 1008.37 1009.15 1009.89 1010.58 1011.20 1011.75 1012.21 1012.58 1012.89 1013.17 1013.44 1013.75 1014.11 1014.52 1014.99 1015.48 1015.95 1016.37 1016.70 1016.93 1017.03 1017.03 1016.95 1016.82 1016.66 1016.50 1016.36 1016.23 1016.11 1015.98 1015.83 1015.66 1015.44 1015.18
998.94 1000.19 1001.37 1002.49 1003.55 1004.55 1005.52 1006.45 1007.36 1008.25 1009.10 1009.91 1010.64 1011.28 1011.82 1012.27 1012.63 1012.93 1013.21 1013.50 1013.85 1014.26 1014.74 1015.27 1015.81 1016.33 1016.77 1017.11 1017.32 1017.41 1017.38 1017.25 1017.06 1016.85 1016.63 1016.42 1016.23 1016.05 1015.88 1015.69 1015.48 1015.24 1014.97
999.26 1000.41 1001.49 1002.50 1003.47 1004.42 1005.36 1006.31 1007.27 1008.21 1009.13 1009.99 1010.77 1011.44 1012.00 1012.45 1012.82 1013.13 1013.43 1013.76 1014.15 1014.62 1015.15 1015.73 1016.31 1016.86 1017.32 1017.66 1017.87 1017.94 1017.88 1017.71 1017.48 1017.21 1016.93 1016.66 1016.39 1016.13 1015.88 1015.62 1015.34 1015.04 1014.72
999.59 1000.68 1001.68 1002.61 1003.52 1004.42 1005.35 1006.31 1007.30 1008.30 1009.27 1010.18 1011.00 1011.71 1012.30 1012.77 1013.16 1013.51 1013.84 1014.22 1014.66 1015.17 1015.74 1016.36 1016.97 1017.53 1018.00 1018.34 1018.54 1018.59 1018.51 1018.32 1018.06 1017.74 1017.40 1017.06 1016.71 1016.37 1016.01 1015.65 1015.28 1014.89 1014.49
999.93 1000.97 1001.92 1002.81 1003.69 1004.58 1005.50 1006.48 1007.50 1008.52 1009.53 1010.48 1011.34 1012.09 1012.71 1013.22 1013.65 1014.04 1014.43 1014.85 1015.33 1015.88 1016.49 1017.12 1017.74 1018.30 1018.76 1019.09 1019.28 1019.32 1019.22 1019.02 1018.73 1018.38 1018.00 1017.59 1017.17 1016.73 1016.27 1015.80 1015.31 1014.82 1014.32
1000.24 1001.26 1002.20 1003.09 1003.97 1004.87 1005.81 1006.80 1007.83 1008.88 1009.92 1010.89 1011.78 1012.56 1013.22 1013.78 1014.26 1014.69 1015.13 1015.60 1016.12 1016.70 1017.32 1017.95 1018.55 1019.09 1019.53 1019.83 1020.00 1020.02 1019.92 1019.71 1019.41 1019.05 1018.63 1018.18 1017.69 1017.17 1016.62 1016.03 1015.43 1014.82 1014.22
1000.50 1001.54 1002.51 1003.43 1004.34 1005.26 1006.23 1007.24 1008.29 1009.35 1010.40 1011.39 1012.30 1013.10 1013.80 1014.41 1014.94 1015.43 1015.92 1016.43 1016.97 1017.56 1018.16 1018.77 1019.34 1019.83 1020.22 1020.49 1020.63 1020.64 1020.53 1020.32 1020.02 1019.65 1019.22 1018.74 1018.21 1017.63 1016.99 1016.32 1015.61 1014.90 1014.19
1000.73 1001.81 1002.82 1003.79 1004.75 1005.72 1006.71 1007.75 1008.81 1009.88 1010.93 1011.93 1012.86 1013.69 1014.43 1015.08 1015.67 1016.21 1016.73 1017.27 1017.83 1018.40 1018.97 1019.53 1020.04 1020.47 1020.81 1021.02 1021.12 1021.11 1020.99 1020.77 1020.48 1020.12 1019.70 1019.21 1018.66 1018.03 1017.35 1016.60 1015.82 1015.02 1014.23
1000.94 1002.07 1003.14 1004.17 1005.19 1006.20 1007.23 1008.28 1009.36 1010.43 1011.49 1012.50 1013.45 1014.31 1015.09 1015.78 1016.41 1016.99 1017.55 1018.10 1018.65 1019.19 1019.72 1020.21 1020.65 1021.00 1021.26 1021.42 1021.47 1021.42 1021.29 1021.08 1020.79 1020.44 1020.03 1019.55 1018.99 1018.35 1017.64 1016.86 1016.02 1015.16 1014.30
Thickness
5702 5700 5699 5698 5696 5695 5693 5693 5693 5692 5691 5689 5688 5688 5687 5686 5684 5680 5677 5675 5673 5670 5668 5665 5662 5659 5656 5652 5649 5646 5642 5638 5635 5631 5627 5623 5619 5615 5612 5608 5604 5600 5597
5698 5696 5696 5694 5692 5691 5690 5689 5689 5687 5686 5685 5684 5683 5682 5680 5678 5675 5672 5670 5667 5665 5662 5660 5657 5654 5650 5647 5643 5640 5636 5632 5629 5625 5621 5617 5613 5608 5605 5601 5597 5593 5589
5694 5693 5691 5690 5688 5686 5685 5685 5684 5683 5681 5680 5678 5677 5676 5675 5673 5670 5667 5665 5662 5659 5657 5654 5651 5648 5645 5641 5638 5634 5630 5627 5622 5618 5614 5610 5606 5602 5598 5594 5590 5586 5582
5690 5689 5686 5685 5683 5682 5681 5680 5678 5676 5675 5674 5672 5671 5670 5669 5668 5665 5663 5660 5657 5654 5651 5648 5646 5642 5639 5636 5632 5628 5625 5621 5617 5612 5608 5604 5600 5596 5591 5587 5583 5579 5575
5685 5684 5682 5680 5679 5677 5676 5675 5673 5671 5669 5667 5666 5664 5663 5662 5661 5660 5658 5656 5653 5650 5646 5643 5640 5637 5634 5630 5626 5623 5619 5615 5611 5607 5602 5598 5594 5589 5585 5581 5577 5572 5568
5680 5679 5677 5676 5673 5672 5670 5669 5667 5666 5664 5662 5660 5657 5656 5656 5655 5654 5653 5651 5648 5645 5642 5638 5635 5631 5628 5624 5620 5617 5613 5609 5605 5601 5596 5592 5587 5583 5579 5575 5570 5566 5561
5673 5674 5672 5670 5668 5667 5666 5664 5662 5660 5657 5656 5652 5647 5647 5649 5648 5648 5647 5646 5643 5641 5637 5634 5630 5626 5623 5619 5615 5611 5607 5604 5600 5595 5591 5586 5581 5577 5572 5568 5564 5559 5554
5667 5668 5668 5666 5664 5662 5660 5659 5657 5654 5652 5651 5647 5641 5636 5636 5639 5642 5641 5640 5638 5635 5633 5629 5626 5622 5618 5614 5609 5605 5601 5597 5594 5589 5585 5580 5575 5570 5566 5561 5556 5552 5547
5661 5662 5663 5662 5660 5659 5657 5656 5654 5652 5648 5646 5645 5642 5635 5632 5632 5634 5635 5634 5632 5630 5627 5625 5621 5617 5613 5609 5604 5600 5595 5591 5587 5583 5578 5574 5569 5564 5559 5554 5549 5544 5539
5655 5656 5657 5657 5655 5655 5654 5653 5651 5649 5646 5642 5641 5642 5642 5640 5632 5627 5627 5628 5627 5625 5623 5620 5616 5612 5608 5604 5599 5594 5590 5585 5580 5576 5571 5567 5562 5557 5552 5547 5541 5536 5530
5648 5650 5651 5652 5651 5651 5650 5649 5647 5645 5643 5641 5638 5637 5636 5636 5635 5627 5621 5620 5620 5620 5618 5615 5612 5608 5603 5599 5594 5589 5584 5579 5574 5569 5564 5559 5554 5549 5544 5539 5533 5527 5522
5640 5644 5646 5647 5647 5647 5646 5645 5644 5641 5640 5638 5636 5634 5632 5631 5629 5627 5622 5617 5614 5613 5613 5610 5607 5603 5598 5593 5588 5583 5578 5572 5567 5562 5557 5551 5546 5541 5535 5530 5524 5518 5512
5635 5639 5641 5642 5643 5643 5642 5641 5640 5638 5636 5634 5633 5631 5630 5629 5629 5627 5622 5615 5611 5608 5606 5604 5602 5597 5592 5587 5581 5576 5571 5566 5561 5555 5550 5544 5538 5532 5526 5520 5515 5508 5502
5633 5634 5636 5637 5638 5638 5638 5637 5636 5634 5632 5631 5629 5627 5626 5625 5625 5623 5619 5614 5607 5603 5600 5598 5595 5591 5586 5581 5575 5570 5565 5559 5554 5548 5543 5536 5530 5524 5518 5511 5505 5499 5492
5630 5631 5632 5633 5633 5634 5634 5633 5632 5630 5629 5627 5626 5623 5622 5621 5620 5618 5616 5612 5605 5598 5595 5592 5588 5584 5580 5574 5569 5563 5558 5552 5547 5541 5535 5529 5522 5515 5509 5502 5495 5489 5482
5627 5628 5628 5629 5630 5630 5630 5629 5629 5627 5625 5623 5622 5620 5618 5616 5614 5612 5610 5608 5604 5598 5592 5588 5583 5578 5573 5568 5562 5556 5551 5545 5539 5533 5527 5521 5514 5507 5500 5493 5486 5478 5471
5623 5625 5625 5626 5626 5626 5626 5625 5625 5624 5622 5620 5618 5616 5614 5612 5609 5606 5604 5601 5598 5594 5587 5581 5576 5571 5565 5560 5554 5549 5544 5538 5532 5525 5519 5513 5506 5499 5491 5484 5476 5468 5460
5618 5621 5622 5622 5623 5623 5623 5623 5622 5622 5620 5617 5615 5612 5610 5608 5604 5601 5598 5595 5592 5588 5582 5574 5568 5562 5557 5552 5547 5541 5536 5530 5524 5518 5511 5504 5497 5490 5482 5474 5466 5457 5449
5614 5617 5619 5620 5620 5620 5620 5620 5620 5619 5618 5615 5613 5610 5606 5603 5599 5596 5593 5590 5586 5583 5577 5570 5562 5555 5549 5544 5538 5533 5527 5521 5516 5510 5503 5495 5488 5481 5473 5465 5456 5447 5439
5609 5613 5616 5617 5617 5617 5617 5617 5617 5616 5614 5612 5609 5606 5604 5600 5596 5593 5589 5585 5580 5575 5570 5563 5555 5548 5541 5535 5530 5524 5518 5512 5507 5501 5493 5486 5479 5471 5463 5455 5447 5438 5429
5605 5607 5610 5612 5613 5613 5614 5614 5613 5612 5609 5606 5603 5601 5599 5596 5592 5589 5585 5580 5575 5569 5562 5555 5548 5541 5533 5526 5521 5515 5509 5503 5497 5490 5483 5477 5470 5462 5454 5445 5436 5428 5419
5599 5602 5605 5608 5609 5611 5610 5610 5609 5607 5605 5602 5599 5596 5593 5589 5586 5582 5579 5575 5571 5564 5557 5550 5542 5535 5528 5521 5514 5508 5500 5493 5487 5482 5474 5467 5461 5452 5444 5436 5427 5418 5409
5592 5595 5599 5602 5604 5605 5605 5605 5604 5603 5601 5598 5595 5591 5587 5583 5579 5574 5570 5566 5561 5557 5553 5547 5538 5531 5523 5517 5509 5501 5492 5484 5477 5471 5464 5457 5450 5441 5434 5426 5418 5409 5400
5586 5590 5595 5598 5599 5600 5599 5598 5597 5596 5594 5592 5590 5587 5582 5577 5573 5568 5562 5556 5551 5546 5543 5538 5532 5525 5518 5511 5504 5495 5486 5476 5468 5460 5454 5445 5439 5431 5425 5416 5408 5399 5390
5580 5585 5589 5592 5593 5593 5593 5592 5591 5589 5587 5585 5583 5580 5576 5572 5567 5563 5556 5548 5541 5535 5531 5528 5522 5516 5510 5503 5495 5486 5476 5467 5458 5451 5443 5434 5428 5421 5413 5405 5397 5389 5380
5575 5579 5583 5587 5589 5588 5586 5587 5585 5584 5581 5578 5575 5573 5570 5566 5561 5557 5551 5545 5536 5528 5522 5516 5511 5505 5498 5491 5484 5477 5469 5459 5450 5441 5434 5425 5416 5408 5401 5395 5387 5380 5371